Time,TemperatureF,DewpointF,PressureIn,WindDirection,WindDirectionDegrees,WindSpeedMPH,WindSpeedGustMPH,Humidity,HourlyPrecipIn,Conditions,Clouds,dailyrainin,SoftwareType,DateUTC
2013-04-01 00:00:00,36.0,35.0,29.83,South,180,7.0,9.0,95,0.00,,,0.02,Rainwise IP-100,2013-04-01 04:00:00,
2013-04-01 00:01:00,36.0,35.0,29.83,SW,225,7.0,9.0,95,0.06,,,0.01,Rainwise IP-100,2013-04-01 04:01:00,
2013-04-01 00:06:00,36.0,35.0,29.83,SW,225,5.0,9.0,95,0.06,,,0.01,Rainwise IP-100,2013-04-01 04:06:00,
2013-04-01 00:11:00,36.0,35.0,29.83,SW,225,6.0,9.0,95,0.00,,,0.01,Rainwise IP-100,2013-04-01 04:11:00,
2013-04-01 00:16:00,36.0,35.0,29.82,WSW,247,6.0,8.0,95,0.06,,,0.02,Rainwise IP-100,2013-04-01 04:16:00,
2013-04-01 00:21:00,36.0,35.0,29.82,SW,225,4.0,9.0,95,0.06,,,0.02,Rainwise IP-100,2013-04-01 04:21:00,
2013-04-01 00:26:00,35.0,33.0,29.81,SW,225,4.0,7.0,95,0.00,,,0.02,Rainwise IP-100,2013-04-01 04:26:00,
2013-04-01 00:31:00,35.0,33.0,29.81,SSW,202,1.0,5.0,95,0.00,,,0.02,Rainwise IP-100,2013-04-01 04:31:00,
2013-04-01 00:36:00,35.0,33.0,29.81,SW,225,0.0,4.0,95,0.00,,,0.02,Rainwise IP-100,2013-04-01 04:36:00,
2013-04-01 00:41:00,35.0,33.0,29.81,WSW,247,3.0,3.0,95,0.00,,,0.02,Rainwise IP-100,2013-04-01 04:41:00,
2013-04-01 00:46:00,35.0,33.0,29.81,WSW,247,0.0,4.0,95,0.00,,,0.02,Rainwise IP-100,2013-04-01 04:46:00,
2013-04-01 00:51:00,35.0,33.0,29.81,SW,225,7.0,7.0,95,0.00,,,0.02,Rainwise IP-100,2013-04-01 04:51:00,
2013-04-01 00:56:00,36.0,35.0,29.80,SW,225,6.0,7.0,95,0.06,,,0.03,Rainwise IP-100,2013-04-01 04:56:00,
2013-04-01 01:01:00,36.0,35.0,29.80,South,180,7.0,7.0,95,0.06,,,0.04,Rainwise IP-100,2013-04-01 05:01:00,
2013-04-01 01:06:00,36.0,35.0,29.80,WSW,247,6.0,9.0,95,0.06,,,0.04,Rainwise IP-100,2013-04-01 05:06:00,
2013-04-01 01:11:00,36.0,35.0,29.80,SSW,202,7.0,9.0,95,0.12,,,0.05,Rainwise IP-100,2013-04-01 05:11:00,
2013-04-01 01:16:00,35.0,33.0,29.79,SSW,202,5.0,9.0,95,0.06,,,0.05,Rainwise IP-100,2013-04-01 05:16:00,
2013-04-01 01:21:00,35.0,33.0,29.79,SW,225,6.0,7.0,95,0.00,,,0.05,Rainwise IP-100,2013-04-01 05:21:00,
2013-04-01 01:26:00,35.0,33.0,29.80,SW,225,6.0,9.0,95,0.00,,,0.05,Rainwise IP-100,2013-04-01 05:26:00,
2013-04-01 01:31:00,35.0,33.0,29.80,West,270,5.0,7.0,95,0.06,,,0.06,Rainwise IP-100,2013-04-01 05:31:00,
2013-04-01 01:36:00,35.0,33.0,29.79,WSW,247,5.0,7.0,95,0.06,,,0.06,Rainwise IP-100,2013-04-01 05:36:00,
2013-04-01 01:41:00,35.0,33.0,29.79,SW,225,4.0,5.0,95,0.00,,,0.06,Rainwise IP-100,2013-04-01 05:41:00,
2013-04-01 01:46:00,35.0,33.0,29.79,SW,225,3.0,5.0,95,0.00,,,0.06,Rainwise IP-100,2013-04-01 05:46:00,
2013-04-01 01:51:00,35.0,33.0,29.79,WSW,247,2.0,4.0,95,0.00,,,0.06,Rainwise IP-100,2013-04-01 05:51:00,
2013-04-01 01:56:00,35.0,33.0,29.78,WSW,247,2.0,5.0,95,0.00,,,0.06,Rainwise IP-100,2013-04-01 05:56:00,
2013-04-01 02:01:00,35.0,33.0,29.78,WSW,247,2.0,4.0,95,0.00,,,0.06,Rainwise IP-100,2013-04-01 06:01:00,
2013-04-01 02:06:00,35.0,33.0,29.78,WSW,247,0.0,4.0,95,0.00,,,0.06,Rainwise IP-100,2013-04-01 06:06:00,
2013-04-01 02:12:00,34.0,33.0,29.78,WSW,247,0.0,1.0,95,0.00,,,0.06,Rainwise IP-100,2013-04-01 06:12:00,
2013-04-01 02:17:00,34.0,33.0,29.78,SSW,202,0.0,2.0,95,0.06,,,0.07,Rainwise IP-100,2013-04-01 06:17:00,
2013-04-01 02:22:00,34.0,33.0,29.78,South,180,1.0,4.0,95,0.06,,,0.07,Rainwise IP-100,2013-04-01 06:22:00,
2013-04-01 02:27:00,34.0,33.0,29.77,South,180,1.0,3.0,95,0.00,,,0.07,Rainwise IP-100,2013-04-01 06:27:00,
2013-04-01 02:32:00,34.0,33.0,29.77,WSW,247,3.0,3.0,95,0.00,,,0.07,Rainwise IP-100,2013-04-01 06:32:00,
2013-04-01 02:37:00,34.0,33.0,29.76,WSW,247,4.0,5.0,95,0.00,,,0.07,Rainwise IP-100,2013-04-01 06:37:00,
2013-04-01 02:42:00,34.0,33.0,29.76,WSW,247,5.0,5.0,95,0.00,,,0.07,Rainwise IP-100,2013-04-01 06:42:00,
2013-04-01 02:47:00,34.0,33.0,29.76,SW,225,5.0,7.0,95,0.06,,,0.08,Rainwise IP-100,2013-04-01 06:47:00,
2013-04-01 02:52:00,34.0,33.0,29.76,SW,225,9.0,9.0,95,0.06,,,0.08,Rainwise IP-100,2013-04-01 06:52:00,
2013-04-01 02:57:00,35.0,33.0,29.75,SW,225,7.0,11.0,95,0.00,,,0.08,Rainwise IP-100,2013-04-01 06:57:00,
2013-04-01 03:02:00,35.0,33.0,29.75,SW,225,6.0,9.0,95,0.00,,,0.08,Rainwise IP-100,2013-04-01 07:02:00,
2013-04-01 03:07:00,35.0,33.0,29.74,SSW,202,7.0,9.0,95,0.00,,,0.08,Rainwise IP-100,2013-04-01 07:07:00,
2013-04-01 03:12:00,35.0,33.0,29.74,SW,225,5.0,12.0,95,0.00,,,0.08,Rainwise IP-100,2013-04-01 07:12:00,
2013-04-01 03:17:00,35.0,33.0,29.74,SW,225,4.0,8.0,95,0.00,,,0.08,Rainwise IP-100,2013-04-01 07:17:00,
2013-04-01 03:22:00,35.0,33.0,29.74,SSW,202,6.0,12.0,95,0.00,,,0.08,Rainwise IP-100,2013-04-01 07:22:00,
2013-04-01 03:27:00,35.0,33.0,29.74,SSW,202,5.0,11.0,95,0.00,,,0.08,Rainwise IP-100,2013-04-01 07:27:00,
2013-04-01 03:32:00,35.0,33.0,29.74,SSW,202,4.0,8.0,95,0.00,,,0.08,Rainwise IP-100,2013-04-01 07:32:00,
2013-04-01 03:37:00,35.0,33.0,29.73,SSW,202,3.0,5.0,95,0.00,,,0.08,Rainwise IP-100,2013-04-01 07:37:00,
2013-04-01 03:42:00,35.0,33.0,29.73,SW,225,3.0,4.0,95,0.00,,,0.08,Rainwise IP-100,2013-04-01 07:42:00,
2013-04-01 03:47:00,35.0,33.0,29.72,SW,225,6.0,6.0,95,0.00,,,0.08,Rainwise IP-100,2013-04-01 07:47:00,
2013-04-01 03:52:00,35.0,33.0,29.72,SSW,202,6.0,6.0,95,0.00,,,0.08,Rainwise IP-100,2013-04-01 07:52:00,
2013-04-01 03:57:00,35.0,33.0,29.72,SW,225,5.0,6.0,95,0.00,,,0.08,Rainwise IP-100,2013-04-01 07:57:00,
2013-04-01 04:02:00,35.0,33.0,29.72,WSW,247,1.0,6.0,95,0.00,,,0.08,Rainwise IP-100,2013-04-01 08:02:00,
2013-04-01 04:07:00,35.0,33.0,29.72,SSW,202,4.0,4.0,95,0.00,,,0.08,Rainwise IP-100,2013-04-01 08:07:00,
2013-04-01 04:12:00,35.0,33.0,29.72,SSW,202,4.0,6.0,95,0.00,,,0.08,Rainwise IP-100,2013-04-01 08:12:00,
2013-04-01 04:17:00,35.0,33.0,29.72,SSW,202,3.0,5.0,95,0.00,,,0.08,Rainwise IP-100,2013-04-01 08:17:00,
2013-04-01 04:22:00,35.0,33.0,29.72,South,180,4.0,5.0,95,0.00,,,0.08,Rainwise IP-100,2013-04-01 08:22:00,
2013-04-01 04:27:00,35.0,33.0,29.71,South,180,3.0,6.0,95,0.00,,,0.08,Rainwise IP-100,2013-04-01 08:27:00,
2013-04-01 04:32:00,35.0,33.0,29.71,WSW,247,3.0,5.0,95,0.00,,,0.08,Rainwise IP-100,2013-04-01 08:32:00,
2013-04-01 04:37:00,35.0,33.0,29.71,West,270,0.0,4.0,95,0.00,,,0.08,Rainwise IP-100,2013-04-01 08:37:00,
2013-04-01 04:42:00,34.0,33.0,29.71,WNW,292,3.0,5.0,95,0.00,,,0.08,Rainwise IP-100,2013-04-01 08:42:00,
2013-04-01 04:47:00,34.0,33.0,29.72,SSW,202,5.0,5.0,95,0.00,,,0.08,Rainwise IP-100,2013-04-01 08:47:00,
2013-04-01 04:52:00,35.0,33.0,29.72,South,180,2.0,7.0,95,0.00,,,0.08,Rainwise IP-100,2013-04-01 08:52:00,
2013-04-01 04:57:00,35.0,33.0,29.70,South,180,0.0,4.0,95,0.00,,,0.08,Rainwise IP-100,2013-04-01 08:57:00,
2013-04-01 05:02:00,35.0,33.0,29.70,SSW,202,5.0,6.0,95,0.00,,,0.08,Rainwise IP-100,2013-04-01 09:02:00,
2013-04-01 05:07:00,35.0,33.0,29.70,SW,225,5.0,7.0,95,0.00,,,0.08,Rainwise IP-100,2013-04-01 09:07:00,
2013-04-01 05:12:00,35.0,33.0,29.70,SW,225,2.0,8.0,95,0.00,,,0.08,Rainwise IP-100,2013-04-01 09:12:00,
2013-04-01 05:17:00,35.0,33.0,29.70,SW,225,3.0,6.0,95,0.00,,,0.08,Rainwise IP-100,2013-04-01 09:17:00,
2013-04-01 05:22:00,35.0,33.0,29.70,SSW,202,5.0,6.0,95,0.00,,,0.08,Rainwise IP-100,2013-04-01 09:22:00,
2013-04-01 05:27:00,35.0,33.0,29.70,SW,225,6.0,7.0,95,0.00,,,0.08,Rainwise IP-100,2013-04-01 09:27:00,
2013-04-01 05:32:00,35.0,33.0,29.70,SSW,202,5.0,7.0,95,0.00,,,0.08,Rainwise IP-100,2013-04-01 09:32:00,
2013-04-01 05:37:00,35.0,33.0,29.69,SW,225,4.0,6.0,95,0.00,,,0.08,Rainwise IP-100,2013-04-01 09:37:00,
2013-04-01 05:42:00,35.0,33.0,29.69,SW,225,5.0,8.0,95,0.00,,,0.08,Rainwise IP-100,2013-04-01 09:42:00,
2013-04-01 05:47:00,35.0,33.0,29.69,SSW,202,5.0,9.0,95,0.00,,,0.08,Rainwise IP-100,2013-04-01 09:47:00,
2013-04-01 05:52:00,35.0,33.0,29.69,WSW,247,4.0,8.0,95,0.00,,,0.08,Rainwise IP-100,2013-04-01 09:52:00,
2013-04-01 05:57:00,34.0,33.0,29.69,West,270,3.0,6.0,95,0.00,,,0.08,Rainwise IP-100,2013-04-01 09:57:00,
2013-04-01 06:02:00,34.0,33.0,29.69,West,270,1.0,4.0,95,0.00,,,0.08,Rainwise IP-100,2013-04-01 10:02:00,
2013-04-01 06:07:00,34.0,33.0,29.69,SE,135,3.0,3.0,95,0.00,,,0.08,Rainwise IP-100,2013-04-01 10:07:00,
2013-04-01 06:12:00,33.0,32.0,29.69,ESE,112,2.0,5.0,95,0.00,,,0.08,Rainwise IP-100,2013-04-01 10:12:00,
2013-04-01 06:17:00,33.0,32.0,29.70,ESE,112,0.0,2.0,95,0.00,,,0.08,Rainwise IP-100,2013-04-01 10:17:00,
2013-04-01 06:22:00,33.0,32.0,29.70,ESE,112,0.0,1.0,95,0.00,,,0.08,Rainwise IP-100,2013-04-01 10:22:00,
2013-04-01 06:27:00,33.0,32.0,29.69,SSW,202,4.0,6.0,95,0.00,,,0.08,Rainwise IP-100,2013-04-01 10:27:00,
2013-04-01 06:32:00,34.0,33.0,29.69,SW,225,3.0,6.0,95,0.00,,,0.08,Rainwise IP-100,2013-04-01 10:32:00,
2013-04-01 06:37:00,34.0,33.0,29.69,SW,225,0.0,4.0,95,0.00,,,0.08,Rainwise IP-100,2013-04-01 10:37:00,
2013-04-01 06:42:00,34.0,33.0,29.69,West,270,2.0,3.0,95,0.00,,,0.08,Rainwise IP-100,2013-04-01 10:42:00,
2013-04-01 06:47:00,34.0,33.0,29.70,WSW,247,7.0,7.0,95,0.00,,,0.08,Rainwise IP-100,2013-04-01 10:47:00,
2013-04-01 06:52:00,35.0,33.0,29.70,SSW,202,7.0,8.0,95,0.00,,,0.08,Rainwise IP-100,2013-04-01 10:52:00,
2013-04-01 06:57:00,35.0,33.0,29.70,SSW,202,7.0,12.0,95,0.00,,,0.08,Rainwise IP-100,2013-04-01 10:57:00,
2013-04-01 07:02:00,35.0,33.0,29.70,SW,225,4.0,8.0,95,0.00,,,0.08,Rainwise IP-100,2013-04-01 11:02:00,
2013-04-01 07:07:00,35.0,33.0,29.70,SSW,202,6.0,7.0,95,0.00,,,0.08,Rainwise IP-100,2013-04-01 11:07:00,
2013-04-01 07:12:00,35.0,33.0,29.70,South,180,6.0,7.0,95,0.00,,,0.08,Rainwise IP-100,2013-04-01 11:12:00,
2013-04-01 07:17:00,35.0,33.0,29.69,SW,225,7.0,7.0,95,0.00,,,0.08,Rainwise IP-100,2013-04-01 11:17:00,
2013-04-01 07:22:00,35.0,33.0,29.69,South,180,5.0,7.0,95,0.00,,,0.08,Rainwise IP-100,2013-04-01 11:22:00,
2013-04-01 07:27:00,36.0,35.0,29.69,SSW,202,7.0,13.0,95,0.00,,,0.08,Rainwise IP-100,2013-04-01 11:27:00,
2013-04-01 07:32:00,36.0,35.0,29.69,SW,225,8.0,14.0,95,0.00,,,0.08,Rainwise IP-100,2013-04-01 11:32:00,
2013-04-01 07:37:00,37.0,36.0,29.68,SSW,202,8.0,13.0,96,0.00,,,0.08,Rainwise IP-100,2013-04-01 11:37:00,
2013-04-01 07:42:00,37.0,36.0,29.68,SW,225,6.0,14.0,96,0.00,,,0.08,Rainwise IP-100,2013-04-01 11:42:00,
2013-04-01 07:47:00,37.0,36.0,29.68,South,180,8.0,10.0,96,0.00,,,0.08,Rainwise IP-100,2013-04-01 11:47:00,
2013-04-01 07:52:00,37.0,36.0,29.68,South,180,6.0,10.0,96,0.00,,,0.08,Rainwise IP-100,2013-04-01 11:52:00,
2013-04-01 07:57:00,37.0,36.0,29.68,South,180,4.0,8.0,96,0.00,,,0.08,Rainwise IP-100,2013-04-01 11:57:00,
2013-04-01 08:02:00,38.0,37.0,29.68,South,180,10.0,11.0,96,0.00,,,0.08,Rainwise IP-100,2013-04-01 12:02:00,
2013-04-01 08:07:00,38.0,37.0,29.66,SSW,202,10.0,12.0,95,0.00,,,0.08,Rainwise IP-100,2013-04-01 12:07:00,
2013-04-01 08:12:00,39.0,38.0,29.66,South,180,11.0,14.0,96,0.00,,,0.08,Rainwise IP-100,2013-04-01 12:12:00,
2013-04-01 08:17:00,39.0,38.0,29.67,South,180,8.0,14.0,96,0.00,,,0.08,Rainwise IP-100,2013-04-01 12:17:00,
2013-04-01 08:22:00,39.0,38.0,29.67,SW,225,8.0,12.0,96,0.00,,,0.08,Rainwise IP-100,2013-04-01 12:22:00,
2013-04-01 08:27:00,39.0,38.0,29.66,SW,225,9.0,14.0,96,0.00,,,0.08,Rainwise IP-100,2013-04-01 12:27:00,
2013-04-01 08:32:00,39.0,38.0,29.66,SW,225,6.0,15.0,96,0.00,,,0.08,Rainwise IP-100,2013-04-01 12:32:00,
2013-04-01 08:37:00,39.0,38.0,29.66,South,180,10.0,12.0,96,0.00,,,0.08,Rainwise IP-100,2013-04-01 12:37:00,
2013-04-01 08:42:00,39.0,38.0,29.66,SW,225,4.0,11.0,96,0.00,,,0.08,Rainwise IP-100,2013-04-01 12:42:00,
2013-04-01 08:47:00,39.0,38.0,29.66,SSW,202,7.0,10.0,96,0.00,,,0.08,Rainwise IP-100,2013-04-01 12:47:00,
2013-04-01 08:52:00,39.0,38.0,29.66,SW,225,8.0,11.0,95,0.00,,,0.08,Rainwise IP-100,2013-04-01 12:52:00,
2013-04-01 08:57:00,39.0,38.0,29.65,SW,225,7.0,10.0,96,0.00,,,0.08,Rainwise IP-100,2013-04-01 12:57:00,
2013-04-01 09:02:00,39.0,38.0,29.65,SW,225,7.0,12.0,95,0.00,,,0.08,Rainwise IP-100,2013-04-01 13:02:00,
2013-04-01 09:07:00,40.0,39.0,29.64,SW,225,8.0,10.0,94,0.00,,,0.08,Rainwise IP-100,2013-04-01 13:07:00,
2013-04-01 09:12:00,41.0,39.0,29.64,SW,225,9.0,10.0,93,0.00,,,0.08,Rainwise IP-100,2013-04-01 13:12:00,
2013-04-01 09:17:00,41.0,39.0,29.64,SW,225,10.0,11.0,91,0.00,,,0.08,Rainwise IP-100,2013-04-01 13:17:00,
2013-04-01 09:22:00,42.0,39.0,29.64,SSW,202,12.0,13.0,90,0.00,,,0.08,Rainwise IP-100,2013-04-01 13:22:00,
2013-04-01 09:27:00,42.0,38.0,29.63,WSW,247,10.0,15.0,85,0.00,,,0.08,Rainwise IP-100,2013-04-01 13:27:00,
2013-04-01 09:32:00,42.0,39.0,29.63,SW,225,10.0,14.0,88,0.00,,,0.08,Rainwise IP-100,2013-04-01 13:32:00,
2013-04-01 09:37:00,42.0,38.0,29.63,South,180,8.0,13.0,85,0.06,,,0.09,Rainwise IP-100,2013-04-01 13:37:00,
2013-04-01 09:42:00,42.0,38.0,29.63,WSW,247,12.0,14.0,87,0.06,,,0.09,Rainwise IP-100,2013-04-01 13:42:00,
2013-04-01 09:47:00,41.0,38.0,29.63,West,270,15.0,18.0,88,0.00,,,0.09,Rainwise IP-100,2013-04-01 13:47:00,
2013-04-01 09:52:00,41.0,38.0,29.63,WSW,247,9.0,16.0,89,0.00,,,0.09,Rainwise IP-100,2013-04-01 13:52:00,
2013-04-01 09:57:00,42.0,39.0,29.62,SW,225,6.0,13.0,90,0.00,,,0.09,Rainwise IP-100,2013-04-01 13:57:00,
2013-04-01 10:02:00,41.0,38.0,29.62,West,270,8.0,14.0,90,0.00,,,0.09,Rainwise IP-100,2013-04-01 14:02:00,
2013-04-01 10:07:00,41.0,38.0,29.64,NW,315,9.0,13.0,90,0.00,,,0.09,Rainwise IP-100,2013-04-01 14:07:00,
2013-04-01 10:12:00,41.0,38.0,29.64,SW,225,6.0,11.0,89,0.00,,,0.09,Rainwise IP-100,2013-04-01 14:12:00,
2013-04-01 10:17:00,41.0,38.0,29.64,WSW,247,10.0,15.0,89,0.00,,,0.09,Rainwise IP-100,2013-04-01 14:17:00,
2013-04-01 10:22:00,41.0,38.0,29.64,WSW,247,6.0,11.0,90,0.00,,,0.09,Rainwise IP-100,2013-04-01 14:22:00,
2013-04-01 10:27:00,41.0,39.0,29.63,WSW,247,5.0,9.0,91,0.00,,,0.09,Rainwise IP-100,2013-04-01 14:27:00,
2013-04-01 10:32:00,41.0,39.0,29.63,SW,225,6.0,9.0,91,0.00,,,0.09,Rainwise IP-100,2013-04-01 14:32:00,
2013-04-01 10:37:00,41.0,38.0,29.63,SSW,202,9.0,9.0,90,0.00,,,0.09,Rainwise IP-100,2013-04-01 14:37:00,
2013-04-01 10:42:00,41.0,38.0,29.63,WSW,247,7.0,10.0,89,0.00,,,0.09,Rainwise IP-100,2013-04-01 14:42:00,
2013-04-01 10:47:00,41.0,38.0,29.62,West,270,4.0,7.0,89,0.00,,,0.09,Rainwise IP-100,2013-04-01 14:47:00,
2013-04-01 10:52:00,41.0,38.0,29.62,SW,225,5.0,6.0,89,0.00,,,0.09,Rainwise IP-100,2013-04-01 14:52:00,
2013-04-01 10:57:00,41.0,38.0,29.62,SW,225,4.0,6.0,89,0.00,,,0.09,Rainwise IP-100,2013-04-01 14:57:00,
2013-04-01 11:02:00,41.0,38.0,29.62,SW,225,6.0,7.0,89,0.00,,,0.09,Rainwise IP-100,2013-04-01 15:02:00,
2013-04-01 11:07:00,41.0,38.0,29.62,SSW,202,16.0,16.0,89,0.00,,,0.09,Rainwise IP-100,2013-04-01 15:07:00,
2013-04-01 11:12:00,41.0,38.0,29.62,SW,225,4.0,17.0,89,0.00,,,0.09,Rainwise IP-100,2013-04-01 15:12:00,
2013-04-01 11:17:00,41.0,38.0,29.62,WSW,247,6.0,6.0,88,0.00,,,0.09,Rainwise IP-100,2013-04-01 15:17:00,
2013-04-01 11:22:00,41.0,38.0,29.62,WSW,247,6.0,6.0,89,0.00,,,0.09,Rainwise IP-100,2013-04-01 15:22:00,
2013-04-01 11:27:00,41.0,38.0,29.62,SW,225,7.0,7.0,90,0.00,,,0.09,Rainwise IP-100,2013-04-01 15:27:00,
2013-04-01 11:32:00,42.0,39.0,29.62,SW,225,9.0,14.0,90,0.00,,,0.09,Rainwise IP-100,2013-04-01 15:32:00,
2013-04-01 11:37:00,42.0,39.0,29.60,WSW,247,12.0,16.0,90,0.00,,,0.09,Rainwise IP-100,2013-04-01 15:37:00,
2013-04-01 11:42:00,42.0,39.0,29.60,SW,225,12.0,19.0,89,0.00,,,0.09,Rainwise IP-100,2013-04-01 15:42:00,
2013-04-01 11:47:00,43.0,40.0,29.60,SW,225,15.0,21.0,89,0.00,,,0.09,Rainwise IP-100,2013-04-01 15:47:00,
2013-04-01 11:52:00,43.0,40.0,29.60,SW,225,9.0,23.0,88,0.00,,,0.09,Rainwise IP-100,2013-04-01 15:52:00,
2013-04-01 11:57:00,43.0,40.0,29.60,SW,225,13.0,17.0,89,0.00,,,0.09,Rainwise IP-100,2013-04-01 15:57:00,
2013-04-01 12:02:00,42.0,39.0,29.60,West,270,11.0,21.0,90,0.00,,,0.09,Rainwise IP-100,2013-04-01 16:02:00,
2013-04-01 12:07:00,43.0,40.0,29.60,SW,225,7.0,14.0,90,0.00,,,0.09,Rainwise IP-100,2013-04-01 16:07:00,
2013-04-01 12:12:00,42.0,39.0,29.60,SW,225,9.0,16.0,90,0.00,,,0.09,Rainwise IP-100,2013-04-01 16:12:00,
2013-04-01 12:17:00,43.0,40.0,29.60,West,270,6.0,16.0,91,0.00,,,0.09,Rainwise IP-100,2013-04-01 16:17:00,
2013-04-01 12:22:00,43.0,41.0,29.60,SW,225,9.0,15.0,93,0.00,,,0.09,Rainwise IP-100,2013-04-01 16:22:00,
2013-04-01 12:27:00,42.0,40.0,29.60,WSW,247,11.0,16.0,93,0.00,,,0.09,Rainwise IP-100,2013-04-01 16:27:00,
2013-04-01 12:32:00,42.0,40.0,29.60,WSW,247,10.0,16.0,94,0.00,,,0.09,Rainwise IP-100,2013-04-01 16:32:00,
2013-04-01 12:37:00,42.0,40.0,29.60,SW,225,9.0,15.0,94,0.00,,,0.09,Rainwise IP-100,2013-04-01 16:37:00,
2013-04-01 12:42:00,42.0,40.0,29.60,South,180,7.0,13.0,92,0.00,,,0.09,Rainwise IP-100,2013-04-01 16:42:00,
2013-04-01 12:47:00,42.0,39.0,29.60,SW,225,8.0,16.0,89,0.00,,,0.09,Rainwise IP-100,2013-04-01 16:47:00,
2013-04-01 12:52:00,42.0,38.0,29.60,WSW,247,10.0,21.0,86,0.00,,,0.09,Rainwise IP-100,2013-04-01 16:52:00,
2013-04-01 12:58:00,42.0,38.0,29.60,SW,225,14.0,16.0,86,0.00,,,0.09,Rainwise IP-100,2013-04-01 16:58:00,
2013-04-01 13:03:00,42.0,39.0,29.60,SW,225,10.0,17.0,89,0.00,,,0.09,Rainwise IP-100,2013-04-01 17:03:00,
2013-04-01 13:08:00,42.0,38.0,29.60,SW,225,6.0,14.0,86,0.00,,,0.09,Rainwise IP-100,2013-04-01 17:08:00,
2013-04-01 13:13:00,42.0,37.0,29.60,WSW,247,10.0,18.0,83,0.00,,,0.09,Rainwise IP-100,2013-04-01 17:13:00,
2013-04-01 13:18:00,42.0,37.0,29.60,SSW,202,13.0,22.0,83,0.00,,,0.09,Rainwise IP-100,2013-04-01 17:18:00,
2013-04-01 13:23:00,41.0,37.0,29.60,SW,225,9.0,15.0,86,0.00,,,0.09,Rainwise IP-100,2013-04-01 17:23:00,
2013-04-01 13:28:00,41.0,37.0,29.60,SW,225,8.0,14.0,85,0.00,,,0.09,Rainwise IP-100,2013-04-01 17:28:00,
2013-04-01 13:33:00,40.0,38.0,29.60,WSW,247,7.0,20.0,91,0.00,,,0.09,Rainwise IP-100,2013-04-01 17:33:00,
2013-04-01 13:38:00,40.0,39.0,29.62,SSW,202,8.0,14.0,94,0.00,,,0.09,Rainwise IP-100,2013-04-01 17:38:00,
2013-04-01 13:43:00,40.0,38.0,29.62,South,180,8.0,13.0,92,0.00,,,0.09,Rainwise IP-100,2013-04-01 17:43:00,
2013-04-01 13:48:00,39.0,38.0,29.61,WSW,247,10.0,16.0,95,0.06,,,0.10,Rainwise IP-100,2013-04-01 17:48:00,
2013-04-01 13:53:00,39.0,38.0,29.61,SW,225,9.0,13.0,96,0.06,,,0.10,Rainwise IP-100,2013-04-01 17:53:00,
2013-04-01 13:58:00,39.0,38.0,29.62,SW,225,14.0,14.0,96,0.06,,,0.11,Rainwise IP-100,2013-04-01 17:58:00,
2013-04-01 14:03:00,39.0,38.0,29.62,SW,225,11.0,15.0,96,0.06,,,0.11,Rainwise IP-100,2013-04-01 18:03:00,
2013-04-01 14:08:00,39.0,38.0,29.62,SW,225,6.0,20.0,95,0.06,,,0.12,Rainwise IP-100,2013-04-01 18:08:00,
2013-04-01 14:13:00,39.0,38.0,29.62,WSW,247,15.0,15.0,94,0.06,,,0.12,Rainwise IP-100,2013-04-01 18:13:00,
2013-04-01 14:18:00,38.0,37.0,29.63,WNW,292,15.0,24.0,95,0.00,,,0.12,Rainwise IP-100,2013-04-01 18:18:00,
2013-04-01 14:23:00,38.0,37.0,29.63,WSW,247,15.0,21.0,96,0.00,,,0.12,Rainwise IP-100,2013-04-01 18:23:00,
2013-04-01 14:28:00,38.0,35.0,29.63,West,270,9.0,20.0,87,0.00,,,0.12,Rainwise IP-100,2013-04-01 18:28:00,
2013-04-01 14:33:00,38.0,35.0,29.63,WSW,247,15.0,21.0,86,0.00,,,0.12,Rainwise IP-100,2013-04-01 18:33:00,
2013-04-01 14:38:00,38.0,35.0,29.63,SW,225,22.0,22.0,85,0.00,,,0.12,Rainwise IP-100,2013-04-01 18:38:00,
2013-04-01 14:43:00,38.0,36.0,29.63,WSW,247,10.0,25.0,91,0.00,,,0.12,Rainwise IP-100,2013-04-01 18:43:00,
2013-04-01 14:48:00,38.0,35.0,29.64,West,270,12.0,16.0,87,0.00,,,0.12,Rainwise IP-100,2013-04-01 18:48:00,
2013-04-01 14:53:00,39.0,35.0,29.64,NW,315,10.0,18.0,84,0.00,,,0.12,Rainwise IP-100,2013-04-01 18:53:00,
2013-04-01 14:58:00,39.0,36.0,29.64,SSW,202,7.0,14.0,87,0.00,,,0.12,Rainwise IP-100,2013-04-01 18:58:00,
2013-04-01 15:03:00,40.0,35.0,29.64,WSW,247,10.0,17.0,79,0.00,,,0.12,Rainwise IP-100,2013-04-01 19:03:00,
2013-04-01 15:08:00,41.0,36.0,29.63,SW,225,8.0,11.0,79,0.00,,,0.12,Rainwise IP-100,2013-04-01 19:08:00,
2013-04-01 15:13:00,40.0,33.0,29.63,WNW,292,7.0,13.0,75,0.00,,,0.12,Rainwise IP-100,2013-04-01 19:13:00,
2013-04-01 15:18:00,40.0,33.0,29.64,WSW,247,9.0,17.0,74,0.00,,,0.12,Rainwise IP-100,2013-04-01 19:18:00,
2013-04-01 15:23:00,40.0,32.0,29.64,West,270,7.0,15.0,70,0.00,,,0.12,Rainwise IP-100,2013-04-01 19:23:00,
2013-04-01 15:28:00,40.0,32.0,29.64,WSW,247,10.0,21.0,70,0.00,,,0.12,Rainwise IP-100,2013-04-01 19:28:00,
2013-04-01 15:33:00,40.0,31.0,29.64,WSW,247,13.0,15.0,69,0.00,,,0.12,Rainwise IP-100,2013-04-01 19:33:00,
2013-04-01 15:38:00,39.0,29.0,29.64,WSW,247,19.0,23.0,67,0.00,,,0.12,Rainwise IP-100,2013-04-01 19:38:00,
2013-04-01 15:43:00,38.0,28.0,29.64,WNW,292,16.0,23.0,64,0.00,,,0.12,Rainwise IP-100,2013-04-01 19:43:00,
2013-04-01 15:48:00,39.0,29.0,29.66,WSW,247,3.0,18.0,68,0.00,,,0.12,Rainwise IP-100,2013-04-01 19:48:00,
2013-04-01 15:53:00,39.0,29.0,29.66,West,270,18.0,19.0,66,0.00,,,0.12,Rainwise IP-100,2013-04-01 19:53:00,
2013-04-01 15:58:00,39.0,29.0,29.66,West,270,15.0,19.0,65,0.00,,,0.12,Rainwise IP-100,2013-04-01 19:58:00,
2013-04-01 16:03:00,38.0,26.0,29.66,WSW,247,15.0,21.0,63,0.00,,,0.12,Rainwise IP-100,2013-04-01 20:03:00,
2013-04-01 16:08:00,38.0,26.0,29.67,WSW,247,8.0,31.0,61,0.00,,,0.12,Rainwise IP-100,2013-04-01 20:08:00,
2013-04-01 16:13:00,38.0,24.0,29.67,WSW,247,12.0,23.0,57,0.00,,,0.12,Rainwise IP-100,2013-04-01 20:13:00,
2013-04-01 16:18:00,37.0,23.0,29.69,West,270,13.0,28.0,55,0.00,,,0.12,Rainwise IP-100,2013-04-01 20:18:00,
2013-04-01 16:23:00,38.0,23.0,29.69,WSW,247,7.0,20.0,54,0.00,,,0.12,Rainwise IP-100,2013-04-01 20:23:00,
2013-04-01 16:28:00,37.0,23.0,29.70,WSW,247,13.0,23.0,54,0.00,,,0.12,Rainwise IP-100,2013-04-01 20:28:00,
2013-04-01 16:33:00,37.0,23.0,29.70,SW,225,27.0,27.0,54,0.00,,,0.12,Rainwise IP-100,2013-04-01 20:33:00,
2013-04-01 16:38:00,37.0,21.0,29.71,WSW,247,12.0,27.0,49,0.00,,,0.12,Rainwise IP-100,2013-04-01 20:38:00,
2013-04-01 16:43:00,37.0,21.0,29.71,SW,225,14.0,23.0,49,0.00,,,0.12,Rainwise IP-100,2013-04-01 20:43:00,
2013-04-01 16:48:00,37.0,18.0,29.71,WNW,292,15.0,27.0,47,0.00,,,0.12,Rainwise IP-100,2013-04-01 20:48:00,
2013-04-01 16:53:00,37.0,21.0,29.71,SW,225,12.0,28.0,48,0.06,,,0.13,Rainwise IP-100,2013-04-01 20:53:00,
2013-04-01 16:58:00,37.0,21.0,29.72,WSW,247,24.0,24.0,49,0.06,,,0.13,Rainwise IP-100,2013-04-01 20:58:00,
2013-04-01 17:03:00,37.0,18.0,29.72,WNW,292,14.0,25.0,46,0.00,,,0.13,Rainwise IP-100,2013-04-01 21:03:00,
2013-04-01 17:08:00,37.0,18.0,29.72,WSW,247,23.0,25.0,46,0.00,,,0.13,Rainwise IP-100,2013-04-01 21:08:00,
2013-04-01 17:13:00,36.0,16.0,29.72,WSW,247,12.0,29.0,44,0.00,,,0.13,Rainwise IP-100,2013-04-01 21:13:00,
2013-04-01 17:18:00,37.0,18.0,29.73,WSW,247,15.0,23.0,45,0.00,,,0.13,Rainwise IP-100,2013-04-01 21:18:00,
2013-04-01 17:23:00,36.0,16.0,29.73,WSW,247,17.0,32.0,44,0.00,,,0.13,Rainwise IP-100,2013-04-01 21:23:00,
2013-04-01 17:28:00,36.0,16.0,29.74,WSW,247,7.0,22.0,42,0.00,,,0.13,Rainwise IP-100,2013-04-01 21:28:00,
2013-04-01 17:33:00,36.0,14.0,29.74,WNW,292,12.0,23.0,40,0.00,,,0.13,Rainwise IP-100,2013-04-01 21:33:00,
2013-04-01 17:38:00,36.0,16.0,29.74,SW,225,18.0,18.0,41,0.00,,,0.13,Rainwise IP-100,2013-04-01 21:38:00,
2013-04-01 17:43:00,36.0,16.0,29.74,WSW,247,20.0,25.0,43,0.00,,,0.13,Rainwise IP-100,2013-04-01 21:43:00,
2013-04-01 17:48:00,35.0,14.0,29.74,NW,315,7.0,30.0,41,0.00,,,0.13,Rainwise IP-100,2013-04-01 21:48:00,
2013-04-01 17:53:00,35.0,14.0,29.74,West,270,13.0,19.0,39,0.00,,,0.13,Rainwise IP-100,2013-04-01 21:53:00,
2013-04-01 17:58:00,35.0,14.0,29.74,WNW,292,7.0,15.0,41,0.00,,,0.13,Rainwise IP-100,2013-04-01 21:58:00,
2013-04-01 18:03:00,36.0,14.0,29.74,WNW,292,9.0,21.0,40,0.00,,,0.13,Rainwise IP-100,2013-04-01 22:03:00,
2013-04-01 18:08:00,35.0,14.0,29.74,NNW,337,19.0,20.0,38,0.00,,,0.13,Rainwise IP-100,2013-04-01 22:08:00,
2013-04-01 18:13:00,34.0,14.0,29.74,NW,315,17.0,20.0,39,0.00,,,0.13,Rainwise IP-100,2013-04-01 22:13:00,
2013-04-01 18:18:00,34.0,14.0,29.76,West,270,12.0,26.0,38,0.00,,,0.13,Rainwise IP-100,2013-04-01 22:18:00,
2013-04-01 18:23:00,33.0,14.0,29.76,WNW,292,23.0,23.0,41,0.00,,,0.13,Rainwise IP-100,2013-04-01 22:23:00,
2013-04-01 18:28:00,33.0,14.0,29.77,WNW,292,9.0,23.0,41,0.00,,,0.13,Rainwise IP-100,2013-04-01 22:28:00,
2013-04-01 18:33:00,33.0,14.0,29.77,WNW,292,19.0,19.0,43,0.00,,,0.13,Rainwise IP-100,2013-04-01 22:33:00,
2013-04-01 18:38:00,33.0,14.0,29.76,SW,225,7.0,27.0,44,0.00,,,0.13,Rainwise IP-100,2013-04-01 22:38:00,
2013-04-01 18:43:00,33.0,14.0,29.76,NW,315,12.0,19.0,44,0.00,,,0.13,Rainwise IP-100,2013-04-01 22:43:00,
2013-04-01 18:48:00,32.0,14.0,29.77,WSW,247,16.0,20.0,43,0.00,,,0.13,Rainwise IP-100,2013-04-01 22:48:00,
2013-04-01 18:53:00,32.0,14.0,29.77,WSW,247,13.0,26.0,44,0.00,,,0.13,Rainwise IP-100,2013-04-01 22:53:00,
2013-04-01 18:58:00,32.0,14.0,29.78,WSW,247,15.0,25.0,45,0.00,,,0.13,Rainwise IP-100,2013-04-01 22:58:00,
2013-04-01 19:03:00,31.0,11.0,29.78,WNW,292,15.0,25.0,44,0.00,,,0.13,Rainwise IP-100,2013-04-01 23:03:00,
2013-04-01 19:08:00,31.0,11.0,29.79,NNW,337,25.0,25.0,44,0.00,,,0.13,Rainwise IP-100,2013-04-01 23:08:00,
2013-04-01 19:13:00,31.0,14.0,29.79,WNW,292,15.0,31.0,45,0.00,,,0.13,Rainwise IP-100,2013-04-01 23:13:00,
2013-04-01 19:18:00,31.0,14.0,29.79,SW,225,6.0,21.0,46,0.00,,,0.13,Rainwise IP-100,2013-04-01 23:18:00,
2013-04-01 19:23:00,31.0,11.0,29.79,WNW,292,9.0,16.0,44,0.00,,,0.13,Rainwise IP-100,2013-04-01 23:23:00,
2013-04-01 19:28:00,30.0,14.0,29.80,WNW,292,12.0,13.0,45,0.00,,,0.13,Rainwise IP-100,2013-04-01 23:28:00,
2013-04-01 19:33:00,30.0,14.0,29.80,West,270,9.0,23.0,47,0.00,,,0.13,Rainwise IP-100,2013-04-01 23:33:00,
2013-04-01 19:38:00,30.0,14.0,29.80,WNW,292,13.0,20.0,47,0.00,,,0.13,Rainwise IP-100,2013-04-01 23:38:00,
2013-04-01 19:43:00,30.0,14.0,29.80,WNW,292,15.0,17.0,47,0.00,,,0.13,Rainwise IP-100,2013-04-01 23:43:00,
2013-04-01 19:48:00,30.0,14.0,29.80,NW,315,2.0,19.0,49,0.00,,,0.13,Rainwise IP-100,2013-04-01 23:48:00,
2013-04-01 19:53:00,30.0,16.0,29.80,North,360,7.0,15.0,50,0.00,,,0.13,Rainwise IP-100,2013-04-01 23:53:00,
2013-04-01 19:58:00,30.0,16.0,29.80,North,360,15.0,16.0,51,0.00,,,0.13,Rainwise IP-100,2013-04-01 23:58:00,
2013-04-01 20:03:00,30.0,16.0,29.80,WNW,292,6.0,17.0,52,0.00,,,0.13,Rainwise IP-100,2013-04-02 00:03:00,
2013-04-01 20:08:00,29.0,14.0,29.81,WNW,292,9.0,16.0,53,0.00,,,0.13,Rainwise IP-100,2013-04-02 00:08:00,
2013-04-01 20:13:00,29.0,16.0,29.81,WNW,292,7.0,25.0,55,0.00,,,0.13,Rainwise IP-100,2013-04-02 00:13:00,
2013-04-01 20:18:00,29.0,16.0,29.83,WNW,292,9.0,13.0,56,0.00,,,0.13,Rainwise IP-100,2013-04-02 00:18:00,
2013-04-01 20:23:00,29.0,14.0,29.83,West,270,15.0,15.0,52,0.00,,,0.13,Rainwise IP-100,2013-04-02 00:23:00,
2013-04-01 20:28:00,29.0,14.0,29.83,West,270,11.0,25.0,52,0.00,,,0.13,Rainwise IP-100,2013-04-02 00:28:00,
2013-04-01 20:33:00,28.0,14.0,29.83,NW,315,16.0,23.0,50,0.00,,,0.13,Rainwise IP-100,2013-04-02 00:33:00,
2013-04-01 20:38:00,28.0,14.0,29.84,WNW,292,18.0,29.0,51,0.00,,,0.13,Rainwise IP-100,2013-04-02 00:38:00,
2013-04-01 20:43:00,28.0,14.0,29.84,NW,315,13.0,29.0,50,0.00,,,0.13,Rainwise IP-100,2013-04-02 00:43:00,
2013-04-01 20:48:00,28.0,11.0,29.84,WNW,292,9.0,21.0,48,0.00,,,0.13,Rainwise IP-100,2013-04-02 00:48:00,
2013-04-01 20:53:00,28.0,11.0,29.84,NNW,337,13.0,29.0,49,0.00,,,0.13,Rainwise IP-100,2013-04-02 00:53:00,
2013-04-01 20:58:00,28.0,11.0,29.84,NW,315,12.0,19.0,49,0.00,,,0.13,Rainwise IP-100,2013-04-02 00:58:00,
2013-04-01 21:03:00,28.0,11.0,29.84,NW,315,15.0,25.0,48,0.00,,,0.13,Rainwise IP-100,2013-04-02 01:03:00,
2013-04-01 21:08:00,28.0,11.0,29.84,NNW,337,9.0,23.0,45,0.00,,,0.13,Rainwise IP-100,2013-04-02 01:08:00,
2013-04-01 21:13:00,28.0,11.0,29.84,NW,315,15.0,20.0,45,0.00,,,0.13,Rainwise IP-100,2013-04-02 01:13:00,
2013-04-01 21:18:00,28.0,11.0,29.85,NW,315,12.0,25.0,46,0.00,,,0.13,Rainwise IP-100,2013-04-02 01:18:00,
2013-04-01 21:24:00,27.0,11.0,29.85,NW,315,13.0,20.0,46,0.00,,,0.13,Rainwise IP-100,2013-04-02 01:24:00,
2013-04-01 21:29:00,27.0,11.0,29.85,West,270,15.0,22.0,48,0.00,,,0.13,Rainwise IP-100,2013-04-02 01:29:00,
2013-04-01 21:34:00,27.0,11.0,29.85,West,270,21.0,22.0,47,0.00,,,0.13,Rainwise IP-100,2013-04-02 01:34:00,
2013-04-01 21:39:00,27.0,11.0,29.86,NW,315,9.0,29.0,47,0.00,,,0.13,Rainwise IP-100,2013-04-02 01:39:00,
2013-04-01 21:44:00,27.0,11.0,29.86,NW,315,13.0,13.0,49,0.00,,,0.13,Rainwise IP-100,2013-04-02 01:44:00,
2013-04-01 21:49:00,27.0,11.0,29.86,WNW,292,15.0,20.0,47,0.00,,,0.13,Rainwise IP-100,2013-04-02 01:49:00,
2013-04-01 21:54:00,27.0,11.0,29.86,NNW,337,13.0,17.0,47,0.00,,,0.13,Rainwise IP-100,2013-04-02 01:54:00,
2013-04-01 21:59:00,27.0,11.0,29.87,WNW,292,7.0,18.0,49,0.00,,,0.13,Rainwise IP-100,2013-04-02 01:59:00,
2013-04-01 22:04:00,27.0,11.0,29.87,North,360,17.0,17.0,48,0.00,,,0.13,Rainwise IP-100,2013-04-02 02:04:00,
2013-04-01 22:09:00,27.0,14.0,29.86,NW,315,7.0,20.0,52,0.00,,,0.13,Rainwise IP-100,2013-04-02 02:09:00,
2013-04-01 22:14:00,27.0,11.0,29.86,NNW,337,13.0,27.0,48,0.00,,,0.13,Rainwise IP-100,2013-04-02 02:14:00,
2013-04-01 22:19:00,27.0,11.0,29.86,WNW,292,7.0,17.0,49,0.00,,,0.13,Rainwise IP-100,2013-04-02 02:19:00,
2013-04-01 22:24:00,27.0,14.0,29.86,WNW,292,6.0,19.0,50,0.00,,,0.13,Rainwise IP-100,2013-04-02 02:24:00,
2013-04-01 22:29:00,27.0,14.0,29.86,WNW,292,6.0,18.0,51,0.00,,,0.13,Rainwise IP-100,2013-04-02 02:29:00,
2013-04-01 22:34:00,27.0,14.0,29.86,WSW,247,15.0,20.0,51,0.00,,,0.13,Rainwise IP-100,2013-04-02 02:34:00,
2013-04-01 22:39:00,27.0,14.0,29.86,NW,315,17.0,24.0,50,0.00,,,0.13,Rainwise IP-100,2013-04-02 02:39:00,
2013-04-01 22:44:00,27.0,11.0,29.86,WNW,292,10.0,26.0,49,0.00,,,0.13,Rainwise IP-100,2013-04-02 02:44:00,
2013-04-01 22:49:00,27.0,11.0,29.86,NNW,337,13.0,28.0,49,0.00,,,0.13,Rainwise IP-100,2013-04-02 02:49:00,
2013-04-01 22:54:00,26.0,11.0,29.86,West,270,6.0,26.0,51,0.00,,,0.13,Rainwise IP-100,2013-04-02 02:54:00,
2013-04-01 22:59:00,26.0,11.0,29.87,NW,315,12.0,15.0,51,0.00,,,0.13,Rainwise IP-100,2013-04-02 02:59:00,
2013-04-01 23:04:00,26.0,11.0,29.87,NNW,337,13.0,19.0,51,0.00,,,0.13,Rainwise IP-100,2013-04-02 03:04:00,
2013-04-01 23:09:00,26.0,11.0,29.86,WNW,292,7.0,20.0,52,0.00,,,0.13,Rainwise IP-100,2013-04-02 03:09:00,
2013-04-01 23:14:00,26.0,11.0,29.86,West,270,14.0,17.0,52,0.00,,,0.13,Rainwise IP-100,2013-04-02 03:14:00,
2013-04-01 23:19:00,26.0,11.0,29.86,West,270,8.0,17.0,52,0.00,,,0.13,Rainwise IP-100,2013-04-02 03:19:00,
2013-04-01 23:24:00,26.0,11.0,29.86,NW,315,13.0,22.0,51,0.00,,,0.13,Rainwise IP-100,2013-04-02 03:24:00,
2013-04-01 23:29:00,26.0,11.0,29.86,WNW,292,16.0,17.0,52,0.00,,,0.13,Rainwise IP-100,2013-04-02 03:29:00,
2013-04-01 23:34:00,26.0,11.0,29.86,West,270,12.0,23.0,51,0.00,,,0.13,Rainwise IP-100,2013-04-02 03:34:00,
2013-04-01 23:39:00,25.0,11.0,29.86,WNW,292,7.0,21.0,51,0.00,,,0.13,Rainwise IP-100,2013-04-02 03:39:00,
2013-04-01 23:44:00,25.0,11.0,29.86,West,270,16.0,26.0,48,0.00,,,0.13,Rainwise IP-100,2013-04-02 03:44:00,
2013-04-01 23:49:00,25.0,11.0,29.85,North,360,23.0,31.0,48,0.00,,,0.13,Rainwise IP-100,2013-04-02 03:49:00,
2013-04-01 23:54:00,25.0,11.0,29.85,WNW,292,15.0,31.0,49,0.00,,,0.13,Rainwise IP-100,2013-04-02 03:54:00,
2013-04-01 23:59:00,25.0,11.0,29.86,WNW,292,12.0,24.0,49,0.00,,,0.13,Rainwise IP-100,2013-04-02 03:59:00,